Weather History for Burnet, TX

Change the Weather History Date:

Monday, December 23, 2013

  Actual Average Record
Temperature  
Mean Temperature 40 °F -  
Max Temperature 53 °F 55 °F 73 °F (2005)
Min Temperature 28 °F 34 °F 21 °F (1998)
Degree Days  
Heating Degree Days 24    
Moisture  
Dew Point 25 °F    
Average Humidity 60    
Maximum Humidity 82    
Minimum Humidity 29    
Precipitation  
Precipitation 0.00 in - - ()
Sea Level Pressure  
Sea Level Pressure 30.47 in    
Wind  
Wind Speed 3 mph (NNE)    
Max Wind Speed 6 mph    
Max Gust Speed -    
Visibility 10 miles    
Events      
Averages and records for this station are not official NWS values.
T = Trace of Precipitation, MM = Missing Value Source: NWS Daily Summary

Daily Weather History Graph

Daily Weather History Graph

Search for Another Location

Airport:

Trip Planner

Search our weather history database for the weather conditions in past years. The results will help you decide how hot, cold, wet, or windy it might be!

Date:

Astronomy

Dec. 23, 2013 Rise Set
Actual Time 7:27 AM CST 5:37 PM CST
Civil Twilight 7:00 AM CST 6:03 PM CST
Nautical Twilight 6:30 AM CST 6:33 PM CST
Astronomical Twilight 6:01 AM CST 7:03 PM CST
Moon 11:24 PM CST (12/23) 11:14 AM CST (12/23)
Length of Visible Light 11h 02m
Length of Day
10h 09m
Waning Gibbous, 68% of the Moon is Illuminated
Dec 23
Waning Gibbous
Dec 25
Last Quarter
Jan 1
New
Jan 7
First Quarter
Jan 15
Full

Hourly Weather History & Observations

Time (CST) Temp. Windchill Dew Point Humidity Pressure Visibility Wind Dir Wind Speed Gust Speed Precip Events Conditions
12:53 AM 33.1 °F 30.0 °F 25.0 °F 72% 30.39 in 10.0 mi North 3.5 mph - N/A   Clear
1:53 AM 30.9 °F - 25.0 °F 79% 30.41 in 10.0 mi Calm Calm - N/A   Clear
2:53 AM 30.0 °F 25.2 °F 25.0 °F 82% 30.40 in 10.0 mi North 4.6 mph - N/A   Clear
3:53 AM 30.9 °F 25.2 °F 25.0 °F 79% 30.40 in 10.0 mi NNE 5.8 mph - N/A   Clear
4:53 AM 30.0 °F 25.2 °F 24.1 °F 79% 30.40 in 10.0 mi North 4.6 mph - N/A   Clear
5:53 AM 30.0 °F 25.2 °F 24.1 °F 79% 30.42 in 10.0 mi North 4.6 mph - N/A   Clear
6:53 AM 28.9 °F 22.8 °F 24.1 °F 82% 30.45 in 10.0 mi North 5.8 mph - N/A   Clear
7:53 AM 30.0 °F 26.5 °F 24.1 °F 79% 30.47 in 10.0 mi NE 3.5 mph - N/A   Clear
8:53 AM 34.0 °F 28.8 °F 25.0 °F 70% 30.50 in 10.0 mi North 5.8 mph - N/A   Clear
9:53 AM 39.0 °F 34.8 °F 25.0 °F 57% 30.51 in 10.0 mi North 5.8 mph - N/A   Clear
10:53 AM 44.1 °F 42.5 °F 24.1 °F 45% 30.52 in 10.0 mi North 3.5 mph - N/A   Clear
11:53 AM 46.0 °F 44.8 °F 21.9 °F 39% 30.50 in 10.0 mi Variable 3.5 mph - N/A   Clear
12:53 PM 48.9 °F - 21.9 °F 35% 30.48 in 10.0 mi ENE 3.5 mph - N/A   Clear
1:53 PM 51.1 °F - 21.9 °F 32% 30.46 in 10.0 mi Calm Calm - N/A   Clear
2:53 PM 53.1 °F - 21.0 °F 29% 30.45 in 10.0 mi Calm Calm - N/A   Clear
3:53 PM 53.1 °F - 23.0 °F 31% 30.45 in 10.0 mi South 3.5 mph - N/A   Clear
4:53 PM 53.1 °F - 21.9 °F 30% 30.47 in 10.0 mi SE 3.5 mph - N/A   Clear
5:53 PM 46.0 °F - 28.9 °F 51% 30.47 in 10.0 mi Calm Calm - N/A   Clear
6:53 PM 41.0 °F - 28.9 °F 62% 30.49 in 10.0 mi Calm Calm - N/A   Clear
7:53 PM 39.0 °F 35.7 °F 28.9 °F 67% 30.52 in 10.0 mi NNE 4.6 mph - N/A   Clear
8:53 PM 39.9 °F 35.8 °F 27.0 °F 60% 30.53 in 10.0 mi NNE 5.8 mph - N/A   Clear
9:53 PM 39.0 °F 35.7 °F 28.0 °F 65% 30.54 in 10.0 mi ENE 4.6 mph - N/A   Clear
10:53 PM 37.9 °F - 28.0 °F 68% 30.55 in 10.0 mi Calm Calm - N/A   Clear
11:53 PM 37.0 °F 33.3 °F 28.9 °F 73% 30.54 in 10.0 mi NNE 4.6 mph - N/A   Clear